Time,TemperatureF,DewpointF,PressureIn,WindDirection,WindDirectionDegrees,WindSpeedMPH,WindSpeedGustMPH,Humidity,HourlyPrecipIn,Conditions,Clouds,dailyrainin,SolarRadiationWatts/m^2,SoftwareType,DateUTC
2013-05-10 00:04:00,60.5,57.9,29.80,SSW,209,0.0,0.0,91,0.00,,CLR,0.00,0.00,VWS V14.01,2013-05-10 05:04:00,
2013-05-10 00:09:00,60.4,57.8,29.80,SSE,163,5.0,8.0,91,0.00,,CLR,0.00,0.00,VWS V14.01,2013-05-10 05:09:00,
2013-05-10 00:14:00,60.2,57.6,29.81,SSW,201,2.0,6.0,91,0.00,,CLR,0.00,0.00,VWS V14.01,2013-05-10 05:14:00,
2013-05-10 00:19:00,60.2,57.6,29.81,SSW,196,0.0,2.0,91,0.00,,CLR,0.00,0.00,VWS V14.01,2013-05-10 05:19:00,
2013-05-10 00:24:00,60.1,57.5,29.81,SSW,213,0.0,2.0,91,0.00,,CLR,0.00,0.00,VWS V14.01,2013-05-10 05:24:00,
2013-05-10 00:30:00,59.9,57.3,29.81,SSW,213,1.0,3.0,91,0.00,,CLR,0.00,0.00,VWS V14.01,2013-05-10 05:30:00,
2013-05-10 00:35:00,59.8,57.2,29.81,SSW,203,0.0,1.0,91,0.00,,CLR,0.00,0.00,VWS V14.01,2013-05-10 05:35:00,
2013-05-10 00:40:00,59.8,57.5,29.81,SSW,200,1.0,3.0,92,0.00,,CLR,0.00,0.00,VWS V14.01,2013-05-10 05:40:00,
2013-05-10 00:45:00,59.8,57.5,29.81,SSW,198,2.0,3.0,92,0.00,,CLR,0.00,0.00,VWS V14.01,2013-05-10 05:45:00,
2013-05-10 00:50:00,59.8,57.5,29.82,SSW,198,4.0,5.0,92,0.00,,CLR,0.00,0.00,VWS V14.01,2013-05-10 05:50:00,
2013-05-10 00:55:00,59.8,57.5,29.81,SSW,198,1.0,2.0,92,0.00,,CLR,0.00,0.00,VWS V14.01,2013-05-10 05:55:00,
2013-05-10 01:00:00,59.8,57.5,29.81,SSE,165,1.0,8.0,92,0.00,,CLR,0.00,0.00,VWS V14.01,2013-05-10 06:00:00,
2013-05-10 01:06:00,59.6,57.3,29.81,SSE,165,0.0,2.0,92,0.00,,CLR,0.00,0.00,VWS V14.01,2013-05-10 06:06:00,
2013-05-10 01:11:00,59.6,57.3,29.81,SW,217,1.0,3.0,92,0.00,,CLR,0.00,0.00,VWS V14.01,2013-05-10 06:11:00,
2013-05-10 01:17:00,59.6,57.6,29.81,SW,219,2.0,5.0,93,0.00,,CLR,0.00,0.00,VWS V14.01,2013-05-10 06:17:00,
2013-05-10 01:22:00,59.6,57.6,29.81,SW,215,1.0,6.0,93,0.00,,CLR,0.00,0.00,VWS V14.01,2013-05-10 06:22:00,
2013-05-10 01:27:00,59.6,57.6,29.81,SSW,192,3.0,7.0,93,0.00,,CLR,0.00,0.00,VWS V14.01,2013-05-10 06:27:00,
2013-05-10 01:32:00,59.6,57.6,29.81,SSW,211,2.0,5.0,93,0.00,,CLR,0.00,0.00,VWS V14.01,2013-05-10 06:32:00,
2013-05-10 01:37:00,59.6,57.6,29.81,SW,226,4.0,5.0,93,0.00,,CLR,0.00,0.00,VWS V14.01,2013-05-10 06:37:00,
2013-05-10 01:42:00,59.6,57.6,29.80,SW,225,1.0,5.0,93,0.00,,CLR,0.00,0.00,VWS V14.01,2013-05-10 06:42:00,
2013-05-10 01:47:00,59.6,57.6,29.80,SSW,210,4.0,5.0,93,0.00,,CLR,0.00,0.00,VWS V14.01,2013-05-10 06:47:00,
2013-05-10 01:52:00,59.5,57.5,29.80,SSW,202,4.0,6.0,93,0.00,,CLR,0.00,0.00,VWS V14.01,2013-05-10 06:52:00,
2013-05-10 01:57:00,59.5,57.8,29.80,SSW,208,3.0,6.0,94,0.00,,CLR,0.00,0.00,VWS V14.01,2013-05-10 06:57:00,
2013-05-10 02:02:00,59.5,57.8,29.80,SSW,200,4.0,6.0,94,0.00,,OVC009,0.00,0.00,VWS V14.01,2013-05-10 07:02:00,
2013-05-10 02:07:00,59.5,57.8,29.80,SSW,210,5.0,7.0,94,0.00,,OVC009,0.00,0.00,VWS V14.01,2013-05-10 07:07:00,
2013-05-10 02:12:00,59.5,57.8,29.80,SW,219,2.0,3.0,94,0.00,,OVC009,0.00,0.00,VWS V14.01,2013-05-10 07:12:00,
2013-05-10 02:17:00,59.5,57.8,29.80,SSW,206,1.0,4.0,94,0.00,,OVC009,0.00,0.00,VWS V14.01,2013-05-10 07:17:00,
2013-05-10 02:22:00,59.5,57.8,29.80,SSW,198,4.0,5.0,94,0.00,,OVC009,0.00,0.00,VWS V14.01,2013-05-10 07:22:00,
2013-05-10 02:27:00,59.5,57.8,29.80,SSW,198,2.0,5.0,94,0.00,,OVC009,0.00,0.00,VWS V14.01,2013-05-10 07:27:00,
2013-05-10 02:32:00,59.5,57.8,29.80,SSW,198,1.0,4.0,94,0.00,,OVC009,0.00,0.00,VWS V14.01,2013-05-10 07:32:00,
2013-05-10 02:37:00,59.5,58.1,29.80,South,182,4.0,7.0,95,0.00,,OVC009,0.00,0.00,VWS V14.01,2013-05-10 07:37:00,
2013-05-10 02:42:00,59.5,58.1,29.80,South,185,3.0,3.0,95,0.00,,OVC009,0.00,0.00,VWS V14.01,2013-05-10 07:42:00,
2013-05-10 02:47:00,59.3,57.9,29.80,South,188,1.0,4.0,95,0.00,,OVC009,0.00,0.00,VWS V14.01,2013-05-10 07:47:00,
2013-05-10 02:52:00,59.3,57.9,29.80,South,189,4.0,5.0,95,0.00,,OVC009,0.00,0.00,VWS V14.01,2013-05-10 07:52:00,
2013-05-10 02:57:00,59.3,57.9,29.80,SSW,196,3.0,4.0,95,0.00,,OVC009,0.00,0.00,VWS V14.01,2013-05-10 07:57:00,
2013-05-10 03:02:00,59.3,57.9,29.80,SSW,198,3.0,4.0,95,0.00,,OVC009,0.00,0.00,VWS V14.01,2013-05-10 08:02:00,
2013-05-10 03:07:00,59.3,57.9,29.80,SSW,198,3.0,3.0,95,0.00,,OVC009,0.00,0.00,VWS V14.01,2013-05-10 08:07:00,
2013-05-10 03:12:00,59.3,57.9,29.80,SSW,198,0.0,4.0,95,0.00,,OVC009,0.00,0.00,VWS V14.01,2013-05-10 08:12:00,
2013-05-10 03:17:00,59.2,57.8,29.81,SSW,199,2.0,3.0,95,0.00,,OVC009,0.00,0.00,VWS V14.01,2013-05-10 08:17:00,
2013-05-10 03:22:00,59.2,57.8,29.80,SSW,199,3.0,4.0,95,0.00,,OVC009,0.00,0.00,VWS V14.01,2013-05-10 08:22:00,
2013-05-10 03:27:00,59.2,58.1,29.80,SSW,205,1.0,4.0,96,0.00,,OVC009,0.00,0.00,VWS V14.01,2013-05-10 08:27:00,
2013-05-10 03:32:00,59.2,58.1,29.80,SSW,205,3.0,4.0,96,0.00,,OVC009,0.00,0.00,VWS V14.01,2013-05-10 08:32:00,
2013-05-10 03:37:00,59.0,57.9,29.80,SSW,205,2.0,2.0,96,0.00,,OVC009,0.00,0.00,VWS V14.01,2013-05-10 08:37:00,
2013-05-10 03:42:00,59.0,57.9,29.80,SSW,205,2.0,3.0,96,0.00,,OVC009,0.00,0.00,VWS V14.01,2013-05-10 08:42:00,
2013-05-10 03:47:00,59.0,57.9,29.80,SSW,205,1.0,3.0,96,0.00,,OVC009,0.00,0.00,VWS V14.01,2013-05-10 08:47:00,
2013-05-10 03:52:00,59.0,57.9,29.80,SSW,203,3.0,3.0,96,0.00,,OVC009,0.00,0.00,VWS V14.01,2013-05-10 08:52:00,
2013-05-10 03:57:00,59.0,57.9,29.80,SSW,203,1.0,1.0,96,0.00,,OVC009,0.00,0.00,VWS V14.01,2013-05-10 08:57:00,
2013-05-10 04:02:00,59.0,57.9,29.80,SSW,204,1.0,4.0,96,0.00,,OVC005,0.00,0.00,VWS V14.01,2013-05-10 09:02:00,
2013-05-10 04:07:00,59.0,57.9,29.80,SSW,204,0.0,2.0,96,0.00,,OVC005,0.00,0.00,VWS V14.01,2013-05-10 09:07:00,
2013-05-10 04:12:00,59.0,57.9,29.80,SSW,203,3.0,4.0,96,0.00,,OVC005,0.00,0.00,VWS V14.01,2013-05-10 09:12:00,
2013-05-10 04:17:00,59.0,57.9,29.80,SSW,202,3.0,4.0,96,0.00,,OVC005,0.00,0.00,VWS V14.01,2013-05-10 09:17:00,
2013-05-10 04:22:00,59.0,57.9,29.80,SW,216,0.0,6.0,96,0.00,,OVC005,0.00,0.00,VWS V14.01,2013-05-10 09:22:00,
2013-05-10 04:28:00,59.2,58.1,29.80,SSW,205,4.0,6.0,96,0.00,,OVC005,0.00,0.00,VWS V14.01,2013-05-10 09:28:00,
2013-05-10 04:33:00,59.2,58.1,29.80,SW,219,6.0,11.0,96,0.00,,OVC005,0.00,0.00,VWS V14.01,2013-05-10 09:33:00,
2013-05-10 04:38:00,59.2,58.1,29.80,SW,224,7.0,8.0,96,0.00,,OVC005,0.00,0.00,VWS V14.01,2013-05-10 09:38:00,
2013-05-10 04:44:00,59.3,58.2,29.81,SSW,210,6.0,7.0,96,0.00,,OVC005,0.00,0.00,VWS V14.01,2013-05-10 09:44:00,
2013-05-10 04:49:00,59.3,58.2,29.80,South,175,2.0,2.0,96,0.00,,OVC005,0.00,0.00,VWS V14.01,2013-05-10 09:49:00,
2013-05-10 04:54:00,59.3,58.2,29.81,SSW,210,3.0,5.0,96,0.00,,OVC005,0.00,0.00,VWS V14.01,2013-05-10 09:54:00,
2013-05-10 04:59:00,59.3,58.2,29.81,SSW,212,2.0,2.0,96,0.00,,OVC005,0.00,0.00,VWS V14.01,2013-05-10 09:59:00,
2013-05-10 05:04:00,59.3,58.2,29.81,SSW,212,3.0,4.0,96,0.00,,OVC005,0.00,0.00,VWS V14.01,2013-05-10 10:04:00,
2013-05-10 05:10:00,59.3,58.2,29.81,SSW,207,3.0,5.0,96,0.00,,OVC005,0.00,0.00,VWS V14.01,2013-05-10 10:10:00,
2013-05-10 05:15:00,59.2,58.1,29.81,South,188,1.0,4.0,96,0.00,,OVC005,0.00,0.00,VWS V14.01,2013-05-10 10:15:00,
2013-05-10 05:20:00,59.2,58.1,29.81,SSW,193,3.0,4.0,96,0.00,,OVC005,0.00,0.00,VWS V14.01,2013-05-10 10:20:00,
2013-05-10 05:25:00,59.2,58.1,29.81,SSW,194,2.0,4.0,96,0.00,,OVC005,0.00,0.00,VWS V14.01,2013-05-10 10:25:00,
2013-05-10 05:30:00,59.2,58.1,29.81,SSW,194,2.0,4.0,96,0.00,,OVC005,0.00,0.00,VWS V14.01,2013-05-10 10:30:00,
2013-05-10 05:35:00,59.2,58.1,29.81,SSW,210,6.0,6.0,96,0.00,,OVC005,0.00,0.00,VWS V14.01,2013-05-10 10:35:00,
2013-05-10 05:40:00,59.2,58.1,29.81,SSW,203,4.0,5.0,96,0.00,,OVC005,0.00,0.00,VWS V14.01,2013-05-10 10:40:00,
2013-05-10 05:45:00,59.2,58.1,29.82,SSW,202,3.0,3.0,96,0.00,,OVC005,0.00,0.00,VWS V14.01,2013-05-10 10:45:00,
2013-05-10 05:50:00,59.2,58.1,29.82,SSW,202,2.0,4.0,96,0.00,,OVC005,0.00,0.00,VWS V14.01,2013-05-10 10:50:00,
2013-05-10 05:56:00,59.2,58.1,29.82,SSW,201,1.0,3.0,96,0.00,,OVC005,0.00,0.00,VWS V14.01,2013-05-10 10:56:00,
2013-05-10 06:01:00,59.2,58.1,29.82,SSW,201,3.0,4.0,96,0.00,,OVC005,0.00,7.00,VWS V14.01,2013-05-10 11:01:00,
2013-05-10 06:06:00,59.2,58.1,29.83,SSW,201,5.0,6.0,96,0.00,,OVC005,0.00,9.00,VWS V14.01,2013-05-10 11:06:00,
2013-05-10 06:11:00,59.0,57.9,29.82,SSW,202,2.0,5.0,96,0.00,,OVC005,0.00,11.00,VWS V14.01,2013-05-10 11:11:00,
2013-05-10 06:16:00,59.2,58.1,29.83,SSW,201,1.0,5.0,96,0.00,,OVC005,0.00,18.00,VWS V14.01,2013-05-10 11:16:00,
2013-05-10 06:21:00,59.2,58.1,29.83,SSW,201,0.0,1.0,96,0.00,,OVC005,0.00,30.00,VWS V14.01,2013-05-10 11:21:00,
2013-05-10 06:27:00,59.2,58.1,29.83,SSW,202,3.0,7.0,96,0.00,,OVC005,0.00,37.00,VWS V14.01,2013-05-10 11:27:00,
2013-05-10 06:32:00,59.2,58.1,29.83,SSW,202,0.0,5.0,96,0.00,,OVC005,0.00,44.00,VWS V14.01,2013-05-10 11:32:00,
2013-05-10 06:38:00,59.2,58.1,29.83,SSW,205,3.0,4.0,96,0.00,,OVC005,0.00,63.00,VWS V14.01,2013-05-10 11:38:00,
2013-05-10 06:43:00,59.3,58.2,29.83,SSW,206,1.0,5.0,96,0.00,,OVC005,0.00,33.00,VWS V14.01,2013-05-10 11:43:00,
2013-05-10 06:48:00,59.3,58.2,29.83,SSW,205,3.0,6.0,96,0.00,,OVC005,0.00,32.00,VWS V14.01,2013-05-10 11:48:00,
2013-05-10 06:53:00,59.3,58.2,29.83,South,169,0.0,7.0,96,0.00,,OVC005,0.00,44.00,VWS V14.01,2013-05-10 11:53:00,
2013-05-10 06:58:00,59.3,58.2,29.83,South,169,0.0,2.0,96,0.00,,OVC005,0.00,60.00,VWS V14.01,2013-05-10 11:58:00,
2013-05-10 07:03:00,59.5,58.4,29.83,South,169,1.0,6.0,96,0.00,,,0.00,70.00,VWS V14.01,2013-05-10 12:03:00,
2013-05-10 07:08:00,59.5,58.4,29.83,SSW,207,0.0,3.0,96,0.00,,,0.00,107.00,VWS V14.01,2013-05-10 12:08:00,
2013-05-10 07:13:00,59.6,58.5,29.83,SSW,207,2.0,3.0,96,0.00,,,0.00,216.00,VWS V14.01,2013-05-10 12:13:00,
2013-05-10 07:18:00,59.8,58.7,29.83,SSW,202,0.0,3.0,96,0.00,,,0.00,134.00,VWS V14.01,2013-05-10 12:18:00,
2013-05-10 07:23:00,59.8,58.7,29.83,SSW,208,2.0,6.0,96,0.00,,,0.00,114.00,VWS V14.01,2013-05-10 12:23:00,
2013-05-10 07:28:00,60.1,59.0,29.84,West,269,1.0,6.0,96,0.00,,,0.00,102.00,VWS V14.01,2013-05-10 12:28:00,
2013-05-10 07:33:00,60.1,59.0,29.84,WSW,250,0.0,2.0,96,0.00,,,0.00,116.00,VWS V14.01,2013-05-10 12:33:00,
2013-05-10 07:38:00,60.1,58.7,29.84,WNW,286,7.0,7.0,95,0.00,,,0.00,111.00,VWS V14.01,2013-05-10 12:38:00,
2013-05-10 07:44:00,60.2,58.8,29.84,West,266,0.0,1.0,95,0.00,,,0.00,127.00,VWS V14.01,2013-05-10 12:44:00,
2013-05-10 07:49:00,60.4,59.0,29.83,West,273,2.0,6.0,95,0.00,,,0.00,206.00,VWS V14.01,2013-05-10 12:49:00,
2013-05-10 07:54:00,60.4,58.7,29.83,West,279,7.0,7.0,94,0.00,,,0.00,146.00,VWS V14.01,2013-05-10 12:54:00,
2013-05-10 07:59:00,60.4,58.4,29.83,West,264,4.0,9.0,93,0.00,,,0.00,113.00,VWS V14.01,2013-05-10 12:59:00,
2013-05-10 08:04:00,60.4,58.4,29.83,West,262,6.0,11.0,93,0.00,,,0.00,128.00,VWS V14.01,2013-05-10 13:04:00,
2013-05-10 08:09:00,60.4,58.1,29.84,WNW,303,1.0,3.0,92,0.00,,,0.00,162.00,VWS V14.01,2013-05-10 13:09:00,
2013-05-10 08:14:00,60.5,58.2,29.84,WSW,252,0.0,6.0,92,0.00,,,0.00,156.00,VWS V14.01,2013-05-10 13:14:00,
2013-05-10 08:19:00,60.5,57.9,29.84,West,280,1.0,2.0,91,0.00,,,0.00,171.00,VWS V14.01,2013-05-10 13:19:00,
2013-05-10 08:24:00,60.4,57.5,29.84,WNW,300,3.0,9.0,90,0.00,,,0.00,146.00,VWS V14.01,2013-05-10 13:24:00,
2013-05-10 08:29:00,60.2,57.0,29.85,WNW,301,2.0,10.0,89,0.00,,,0.00,120.00,VWS V14.01,2013-05-10 13:29:00,
2013-05-10 08:34:00,59.9,56.3,29.85,NNE,18,4.0,10.0,88,0.00,,,0.00,102.00,VWS V14.01,2013-05-10 13:34:00,
2013-05-10 08:39:00,57.5,53.7,29.86,WNW,292,5.0,9.0,87,0.00,,,0.00,81.00,VWS V14.01,2013-05-10 13:39:00,
2013-05-10 08:44:00,55.7,52.2,29.86,NNW,334,3.0,6.0,88,0.00,,,0.00,118.00,VWS V14.01,2013-05-10 13:44:00,
2013-05-10 08:49:00,54.7,51.8,29.86,North,360,2.0,5.0,90,0.00,,,0.00,141.00,VWS V14.01,2013-05-10 13:49:00,
2013-05-10 08:54:00,53.9,51.0,29.86,NNE,13,5.0,11.0,90,0.00,,,0.00,142.00,VWS V14.01,2013-05-10 13:54:00,
2013-05-10 08:59:00,53.2,50.7,29.87,NNW,343,3.0,7.0,91,0.00,,,0.00,135.00,VWS V14.01,2013-05-10 13:59:00,
2013-05-10 09:04:00,52.9,50.6,29.86,NNE,29,4.0,10.0,92,0.00,,,0.00,158.00,VWS V14.01,2013-05-10 14:04:00,
2013-05-10 09:09:00,52.6,50.6,29.87,North,351,8.0,8.0,93,0.00,,,0.00,162.00,VWS V14.01,2013-05-10 14:09:00,
2013-05-10 09:14:00,52.6,50.6,29.87,NNE,14,1.0,5.0,93,0.00,,,0.00,153.00,VWS V14.01,2013-05-10 14:14:00,
2013-05-10 09:19:00,52.6,50.6,29.87,NNE,21,4.0,9.0,93,0.00,,,0.00,113.00,VWS V14.01,2013-05-10 14:19:00,
2013-05-10 09:24:00,52.3,50.3,29.88,NNE,15,7.0,8.0,93,0.00,,,0.00,156.00,VWS V14.01,2013-05-10 14:24:00,
2013-05-10 09:29:00,52.0,50.0,29.88,NNW,346,5.0,5.0,93,0.00,,,0.00,155.00,VWS V14.01,2013-05-10 14:29:00,
2013-05-10 09:34:00,51.9,49.9,29.88,NNE,22,3.0,9.0,93,0.00,,,0.00,149.00,VWS V14.01,2013-05-10 14:34:00,
2013-05-10 09:40:00,51.7,49.8,29.88,NNW,329,3.0,9.0,93,0.00,,,0.00,167.00,VWS V14.01,2013-05-10 14:40:00,
2013-05-10 09:46:00,51.7,49.5,29.89,NNW,342,3.0,5.0,92,0.00,,,0.00,118.00,VWS V14.01,2013-05-10 14:46:00,
2013-05-10 09:51:00,51.7,49.5,29.89,NW,326,2.0,13.0,92,0.00,,,0.00,123.00,VWS V14.01,2013-05-10 14:51:00,
2013-05-10 09:56:00,51.6,49.4,29.89,North,349,4.0,11.0,92,0.00,,,0.00,132.00,VWS V14.01,2013-05-10 14:56:00,
2013-05-10 10:01:00,51.4,49.2,29.89,North,9,3.0,6.0,92,0.00,,,0.00,139.00,VWS V14.01,2013-05-10 15:01:00,
2013-05-10 10:07:00,51.3,49.1,29.90,NNE,13,2.0,5.0,92,0.00,,,0.00,118.00,VWS V14.01,2013-05-10 15:07:00,
2013-05-10 10:12:00,51.0,48.8,29.90,North,9,5.0,6.0,92,0.00,,,0.00,130.00,VWS V14.01,2013-05-10 15:12:00,
2013-05-10 10:17:00,50.8,48.3,29.90,North,360,2.0,7.0,91,0.00,,,0.00,186.00,VWS V14.01,2013-05-10 15:17:00,
2013-05-10 10:22:00,51.0,48.8,29.90,NNW,343,5.0,10.0,92,0.00,,,0.00,206.00,VWS V14.01,2013-05-10 15:22:00,
2013-05-10 10:27:00,51.0,48.5,29.90,NNE,13,4.0,12.0,91,0.00,,,0.00,169.00,VWS V14.01,2013-05-10 15:27:00,
2013-05-10 10:32:00,50.8,48.3,29.90,NNE,16,4.0,10.0,91,0.00,,,0.00,195.00,VWS V14.01,2013-05-10 15:32:00,
2013-05-10 10:38:00,51.0,48.5,29.90,NE,38,2.0,6.0,91,0.00,,,0.00,176.00,VWS V14.01,2013-05-10 15:38:00,
2013-05-10 10:43:00,51.1,48.6,29.90,NNE,13,6.0,6.0,91,0.00,,,0.00,202.00,VWS V14.01,2013-05-10 15:43:00,
2013-05-10 10:48:00,51.4,48.9,29.90,North,360,2.0,12.0,91,0.00,,,0.00,251.00,VWS V14.01,2013-05-10 15:48:00,
2013-05-10 10:53:00,51.4,48.9,29.90,NNE,16,7.0,8.0,91,0.00,,,0.00,262.00,VWS V14.01,2013-05-10 15:53:00,
2013-05-10 10:58:00,51.4,48.6,29.90,NNW,327,8.0,11.0,90,0.00,,,0.00,230.00,VWS V14.01,2013-05-10 15:58:00,
2013-05-10 11:04:00,51.6,49.1,29.90,NW,323,3.0,8.0,91,0.00,,,0.00,439.00,VWS V14.01,2013-05-10 16:04:00,
2013-05-10 11:09:00,52.0,49.2,29.90,NW,309,3.0,6.0,90,0.00,,,0.00,338.00,VWS V14.01,2013-05-10 16:09:00,
2013-05-10 11:14:00,52.0,48.9,29.91,NNW,348,4.0,5.0,89,0.00,,,0.00,345.00,VWS V14.01,2013-05-10 16:14:00,
2013-05-10 11:19:00,52.2,49.1,29.91,North,360,5.0,11.0,89,0.00,,,0.00,376.00,VWS V14.01,2013-05-10 16:19:00,
2013-05-10 11:24:00,52.3,48.9,29.91,North,360,6.0,10.0,88,0.00,,,0.00,251.00,VWS V14.01,2013-05-10 16:24:00,
2013-05-10 11:29:00,52.3,48.9,29.91,North,360,5.0,8.0,88,0.00,,,0.00,290.00,VWS V14.01,2013-05-10 16:29:00,
2013-05-10 11:35:00,52.5,49.0,29.91,North,360,3.0,6.0,88,0.00,,,0.00,281.00,VWS V14.01,2013-05-10 16:35:00,
2013-05-10 11:40:00,52.8,49.0,29.91,NNW,329,4.0,5.0,87,0.00,,,0.00,334.00,VWS V14.01,2013-05-10 16:40:00,
2013-05-10 11:45:00,52.9,49.1,29.91,NW,313,1.0,6.0,87,0.00,,,0.00,258.00,VWS V14.01,2013-05-10 16:45:00,
2013-05-10 11:50:00,52.9,49.1,29.91,North,11,5.0,9.0,87,0.00,,,0.00,309.00,VWS V14.01,2013-05-10 16:50:00,
2013-05-10 11:55:00,53.1,49.3,29.91,NNE,29,6.0,8.0,87,0.00,,,0.00,265.00,VWS V14.01,2013-05-10 16:55:00,
2013-05-10 12:00:00,52.9,48.8,29.91,NW,310,7.0,11.0,86,0.00,,OVC005,0.00,251.00,VWS V14.01,2013-05-10 17:00:00,
2013-05-10 12:06:00,52.8,48.7,29.92,NW,322,10.0,10.0,86,0.00,,OVC005,0.00,190.00,VWS V14.01,2013-05-10 17:06:00,
2013-05-10 12:11:00,52.6,48.5,29.92,WNW,294,4.0,4.0,86,0.00,,OVC005,0.00,195.00,VWS V14.01,2013-05-10 17:11:00,
2013-05-10 12:16:00,52.6,48.5,29.92,NW,322,6.0,8.0,86,0.00,,OVC005,0.00,176.00,VWS V14.01,2013-05-10 17:16:00,
2013-05-10 12:21:00,52.6,48.8,29.92,NNW,331,8.0,9.0,87,0.00,,OVC005,0.00,158.00,VWS V14.01,2013-05-10 17:21:00,
2013-05-10 12:26:00,52.3,48.2,29.92,WNW,295,2.0,9.0,86,0.00,,OVC005,0.00,192.00,VWS V14.01,2013-05-10 17:26:00,
2013-05-10 12:32:00,52.2,48.2,29.92,WNW,295,4.0,7.0,86,0.00,,OVC005,0.00,232.00,VWS V14.01,2013-05-10 17:32:00,
2013-05-10 12:37:00,52.3,48.2,29.92,NNE,20,2.0,8.0,86,0.00,,OVC005,0.00,220.00,VWS V14.01,2013-05-10 17:37:00,
2013-05-10 12:43:00,52.5,48.4,29.93,NNE,25,7.0,9.0,86,0.00,,OVC005,0.00,192.00,VWS V14.01,2013-05-10 17:43:00,
2013-05-10 12:48:00,52.5,48.4,29.93,NNW,337,5.0,8.0,86,0.00,,OVC005,0.00,200.00,VWS V14.01,2013-05-10 17:48:00,
2013-05-10 12:53:00,52.8,48.7,29.93,North,360,1.0,7.0,86,0.00,,OVC005,0.00,258.00,VWS V14.01,2013-05-10 17:53:00,
2013-05-10 12:59:00,52.9,48.8,29.93,NW,323,7.0,12.0,86,0.00,,OVC005,0.00,181.00,VWS V14.01,2013-05-10 17:59:00,
2013-05-10 13:05:00,52.8,48.4,29.93,NW,320,0.0,11.0,85,0.00,,OVC005,0.00,172.00,VWS V14.01,2013-05-10 18:05:00,
2013-05-10 13:10:00,52.8,48.4,29.93,NW,320,4.0,8.0,85,0.00,,OVC005,0.00,188.00,VWS V14.01,2013-05-10 18:10:00,
2013-05-10 13:15:00,52.8,48.4,29.93,NNE,29,6.0,8.0,85,0.00,,OVC005,0.00,165.00,VWS V14.01,2013-05-10 18:15:00,
2013-05-10 13:20:00,52.8,48.4,29.93,NNW,331,2.0,4.0,85,0.00,,OVC005,0.00,206.00,VWS V14.01,2013-05-10 18:20:00,
2013-05-10 13:26:00,52.9,48.5,29.93,NNW,346,3.0,7.0,85,0.00,,OVC005,0.00,183.00,VWS V14.01,2013-05-10 18:26:00,
2013-05-10 13:31:00,52.9,48.5,29.93,North,9,6.0,7.0,85,0.00,,OVC005,0.00,165.00,VWS V14.01,2013-05-10 18:31:00,
2013-05-10 13:36:00,53.1,49.0,29.93,NNW,331,3.0,4.0,86,0.00,,OVC005,0.00,197.00,VWS V14.01,2013-05-10 18:36:00,
2013-05-10 13:41:00,53.1,48.4,29.93,NNW,329,3.0,12.0,84,0.00,,OVC005,0.00,234.00,VWS V14.01,2013-05-10 18:41:00,
2013-05-10 13:46:00,53.1,48.7,29.93,NNW,333,2.0,8.0,85,0.00,,OVC005,0.00,253.00,VWS V14.01,2013-05-10 18:46:00,
2013-05-10 13:51:00,53.2,48.5,29.93,NNW,331,5.0,8.0,84,0.00,,OVC005,0.00,229.00,VWS V14.01,2013-05-10 18:51:00,
2013-05-10 13:56:00,53.3,48.6,29.93,NNW,336,3.0,8.0,84,0.00,,OVC005,0.00,250.00,VWS V14.01,2013-05-10 18:56:00,
2013-05-10 14:01:00,53.3,48.6,29.93,NNE,19,0.0,7.0,84,0.00,,OVC009,0.00,221.00,VWS V14.01,2013-05-10 19:01:00,
2013-05-10 14:06:00,53.3,48.3,29.93,NNE,17,7.0,9.0,83,0.00,,OVC009,0.00,178.00,VWS V14.01,2013-05-10 19:06:00,
2013-05-10 14:11:00,53.3,48.3,29.93,WNW,297,6.0,10.0,83,0.00,,OVC009,0.00,163.00,VWS V14.01,2013-05-10 19:11:00,
2013-05-10 14:17:00,53.2,48.5,29.93,NNW,333,3.0,7.0,84,0.00,,OVC009,0.00,165.00,VWS V14.01,2013-05-10 19:17:00,
2013-05-10 14:22:00,53.1,48.4,29.94,NNE,19,5.0,8.0,84,0.00,,OVC009,0.00,141.00,VWS V14.01,2013-05-10 19:22:00,
2013-05-10 14:28:00,52.9,48.5,29.93,NNW,327,2.0,8.0,85,0.00,,OVC009,0.00,171.00,VWS V14.01,2013-05-10 19:28:00,
2013-05-10 14:33:00,52.8,48.7,29.93,NNW,341,6.0,8.0,86,0.00,,OVC009,0.00,202.00,VWS V14.01,2013-05-10 19:33:00,
2013-05-10 14:39:00,52.6,48.5,29.93,North,360,6.0,6.0,86,0.00,,OVC009,0.00,204.00,VWS V14.01,2013-05-10 19:39:00,
2013-05-10 14:44:00,52.8,48.7,29.93,NNE,15,5.0,6.0,86,0.00,,OVC009,0.00,279.00,VWS V14.01,2013-05-10 19:44:00,
2013-05-10 14:49:00,53.1,48.7,29.93,North,9,1.0,5.0,85,0.00,,OVC009,0.00,220.00,VWS V14.01,2013-05-10 19:49:00,
2013-05-10 14:54:00,53.2,48.8,29.92,North,351,3.0,7.0,85,0.00,,OVC009,0.00,214.00,VWS V14.01,2013-05-10 19:54:00,
2013-05-10 14:59:00,53.1,48.7,29.92,North,349,5.0,8.0,85,0.00,,OVC009,0.00,193.00,VWS V14.01,2013-05-10 19:59:00,
2013-05-10 15:04:00,52.9,48.5,29.93,North,360,5.0,10.0,85,0.00,,OVC009,0.00,169.00,VWS V14.01,2013-05-10 20:04:00,
2013-05-10 15:09:00,52.8,48.4,29.93,WNW,291,6.0,10.0,85,0.00,,OVC009,0.00,134.00,VWS V14.01,2013-05-10 20:09:00,
2013-05-10 15:14:00,52.8,48.4,29.93,NW,311,6.0,9.0,85,0.00,,OVC009,0.00,165.00,VWS V14.01,2013-05-10 20:14:00,
2013-05-10 15:20:00,52.6,48.5,29.93,NW,315,4.0,7.0,86,0.00,,OVC009,0.00,132.00,VWS V14.01,2013-05-10 20:20:00,
2013-05-10 15:25:00,52.5,48.4,29.93,North,360,5.0,8.0,86,0.00,,OVC009,0.00,134.00,VWS V14.01,2013-05-10 20:25:00,
2013-05-10 15:31:00,52.5,48.8,29.93,NNW,331,4.0,9.0,87,0.00,,OVC009,0.00,116.00,VWS V14.01,2013-05-10 20:31:00,
2013-05-10 15:36:00,52.5,48.8,29.94,NW,320,5.0,8.0,87,0.00,,OVC009,0.00,153.00,VWS V14.01,2013-05-10 20:36:00,
2013-05-10 15:41:00,52.3,48.5,29.94,NNE,28,4.0,13.0,87,0.00,,OVC009,0.00,153.00,VWS V14.01,2013-05-10 20:41:00,
2013-05-10 15:46:00,52.3,48.2,29.94,North,360,3.0,7.0,86,0.00,,OVC009,0.00,158.00,VWS V14.01,2013-05-10 20:46:00,
2013-05-10 15:51:00,52.6,48.5,29.94,NNW,328,4.0,5.0,86,0.00,,OVC009,0.00,125.00,VWS V14.01,2013-05-10 20:51:00,
2013-05-10 15:57:00,52.6,48.2,29.94,NNW,330,11.0,11.0,85,0.00,,OVC009,0.00,81.00,VWS V14.01,2013-05-10 20:57:00,
2013-05-10 16:02:00,52.5,48.1,29.94,NNE,13,5.0,8.0,85,0.00,,OVC009,0.00,74.00,VWS V14.01,2013-05-10 21:02:00,
2013-05-10 16:07:00,52.3,48.2,29.94,NW,322,1.0,5.0,86,0.00,,OVC009,0.00,79.00,VWS V14.01,2013-05-10 21:07:00,
2013-05-10 16:12:00,52.3,48.2,29.94,NNE,15,7.0,10.0,86,0.00,,OVC009,0.00,76.00,VWS V14.01,2013-05-10 21:12:00,
2013-05-10 16:18:00,52.3,48.2,29.95,NW,324,2.0,4.0,86,0.00,,OVC009,0.00,69.00,VWS V14.01,2013-05-10 21:18:00,
2013-05-10 16:23:00,52.2,48.2,29.95,WNW,284,2.0,6.0,86,0.00,,OVC009,0.00,51.00,VWS V14.01,2013-05-10 21:23:00,
2013-05-10 16:28:00,52.0,48.3,29.95,North,360,9.0,11.0,87,0.00,,OVC009,0.00,53.00,VWS V14.01,2013-05-10 21:28:00,
2013-05-10 16:33:00,51.7,48.0,29.95,North,351,2.0,9.0,87,0.00,,OVC009,0.00,58.00,VWS V14.01,2013-05-10 21:33:00,
2013-05-10 16:38:00,51.6,47.9,29.95,NNW,331,2.0,11.0,87,0.00,,OVC009,0.00,67.00,VWS V14.01,2013-05-10 21:38:00,
2013-05-10 16:43:00,51.6,47.9,29.95,NNW,336,6.0,9.0,87,0.00,,OVC009,0.00,67.00,VWS V14.01,2013-05-10 21:43:00,
2013-05-10 16:48:00,51.4,47.7,29.95,West,265,3.0,8.0,87,0.00,,OVC009,0.00,69.00,VWS V14.01,2013-05-10 21:48:00,
2013-05-10 16:53:00,51.6,47.9,29.96,NW,322,4.0,7.0,87,0.00,,OVC009,0.00,51.00,VWS V14.01,2013-05-10 21:53:00,
2013-05-10 16:58:00,51.6,47.9,29.96,North,9,11.0,11.0,87,0.00,,OVC009,0.00,53.00,VWS V14.01,2013-05-10 21:58:00,
2013-05-10 16:59:00,51.6,47.6,29.96,NNE,19,7.0,11.0,86,0.00,,OVC009,0.00,56.00,VWS V14.01,2013-05-10 21:59:00,
2013-05-10 17:01:00,51.6,47.9,29.96,NNW,332,2.0,5.0,87,0.00,,OVC007,0.00,69.00,VWS V14.01,2013-05-10 22:01:00,
2013-05-10 17:03:00,51.4,47.7,29.96,NW,325,3.0,8.0,87,0.00,,OVC007,0.00,67.00,VWS V14.01,2013-05-10 22:03:00,
2013-05-10 17:05:00,51.4,47.7,29.96,NW,318,0.0,5.0,87,0.00,,OVC007,0.00,56.00,VWS V14.01,2013-05-10 22:05:00,
2013-05-10 17:11:00,51.6,47.9,29.96,North,351,10.0,10.0,87,0.00,,OVC007,0.00,44.00,VWS V14.01,2013-05-10 22:11:00,
2013-05-10 17:17:00,51.4,47.7,29.96,NW,313,4.0,6.0,87,0.00,,OVC007,0.00,40.00,VWS V14.01,2013-05-10 22:17:00,
2013-05-10 17:22:00,51.3,47.9,29.96,North,9,5.0,9.0,88,0.00,,OVC007,0.00,37.00,VWS V14.01,2013-05-10 22:22:00,
2013-05-10 17:27:00,51.1,47.7,29.96,NNW,346,1.0,4.0,88,0.00,,OVC007,0.00,69.00,VWS V14.01,2013-05-10 22:27:00,
2013-05-10 17:32:00,51.1,47.7,29.96,NNE,18,5.0,6.0,88,0.00,,OVC007,0.00,54.00,VWS V14.01,2013-05-10 22:32:00,
2013-05-10 17:37:00,51.1,47.7,29.96,North,360,3.0,4.0,88,0.00,,OVC007,0.00,33.00,VWS V14.01,2013-05-10 22:37:00,
2013-05-10 17:43:00,51.3,47.9,29.97,NNW,343,1.0,5.0,88,0.00,,OVC007,0.00,26.00,VWS V14.01,2013-05-10 22:43:00,
2013-05-10 17:49:00,51.1,47.7,29.97,NNE,12,2.0,4.0,88,0.00,,OVC007,0.00,32.00,VWS V14.01,2013-05-10 22:49:00,
2013-05-10 17:54:00,51.1,47.7,29.97,NNW,339,5.0,9.0,88,0.00,,OVC007,0.00,42.00,VWS V14.01,2013-05-10 22:54:00,
2013-05-10 17:59:00,51.1,47.7,29.97,NNE,13,1.0,4.0,88,0.00,,OVC007,0.00,42.00,VWS V14.01,2013-05-10 22:59:00,
2013-05-10 18:04:00,51.1,47.7,29.97,NNW,338,2.0,6.0,88,0.00,,OVC007,0.00,30.00,VWS V14.01,2013-05-10 23:04:00,
2013-05-10 18:09:00,51.1,47.7,29.97,NNW,348,9.0,9.0,88,0.00,,OVC007,0.00,23.00,VWS V14.01,2013-05-10 23:09:00,
2013-05-10 18:14:00,51.0,47.6,29.97,North,5,7.0,7.0,88,0.00,,OVC007,0.00,19.00,VWS V14.01,2013-05-10 23:14:00,
2013-05-10 18:19:00,51.0,47.6,29.97,North,350,3.0,12.0,88,0.00,,OVC007,0.00,18.00,VWS V14.01,2013-05-10 23:19:00,
2013-05-10 18:25:00,51.0,47.9,29.98,North,350,7.0,7.0,89,0.00,,OVC007,0.00,19.00,VWS V14.01,2013-05-10 23:25:00,
2013-05-10 18:30:00,51.0,47.9,29.98,North,11,6.0,7.0,89,0.00,,OVC007,0.00,35.00,VWS V14.01,2013-05-10 23:30:00,
2013-05-10 18:35:00,50.8,47.7,29.98,North,360,6.0,8.0,89,0.00,,OVC007,0.00,23.00,VWS V14.01,2013-05-10 23:35:00,
2013-05-10 18:40:00,50.8,47.7,29.98,NNW,329,5.0,6.0,89,0.00,,OVC007,0.00,18.00,VWS V14.01,2013-05-10 23:40:00,
2013-05-10 18:45:00,50.8,47.7,29.98,NNW,340,3.0,6.0,89,0.00,,OVC007,0.00,12.00,VWS V14.01,2013-05-10 23:45:00,
2013-05-10 18:51:00,50.7,47.6,29.99,NW,310,4.0,10.0,89,0.00,,OVC007,0.00,7.00,VWS V14.01,2013-05-10 23:51:00,
2013-05-10 18:56:00,50.7,47.6,29.99,North,350,5.0,5.0,89,0.00,,OVC007,0.00,11.00,VWS V14.01,2013-05-10 23:56:00,
2013-05-10 19:01:00,50.5,47.7,29.99,North,360,2.0,6.0,90,0.00,,OVC007,0.00,14.00,VWS V14.01,2013-05-11 00:01:00,
2013-05-10 19:06:00,50.4,47.6,29.99,NW,304,1.0,5.0,90,0.00,,OVC007,0.00,25.00,VWS V14.01,2013-05-11 00:06:00,
2013-05-10 19:11:00,50.5,47.7,29.99,North,360,1.0,2.0,90,0.00,,OVC007,0.00,14.00,VWS V14.01,2013-05-11 00:11:00,
2013-05-10 19:17:00,50.7,47.6,29.99,NNW,342,3.0,3.0,89,0.00,,OVC007,0.00,11.00,VWS V14.01,2013-05-11 00:17:00,
2013-05-10 19:22:00,50.7,47.6,29.99,NW,324,2.0,8.0,89,0.00,,OVC007,0.00,9.00,VWS V14.01,2013-05-11 00:22:00,
2013-05-10 19:27:00,50.7,47.6,30.00,NW,318,5.0,7.0,89,0.00,,OVC007,0.00,7.00,VWS V14.01,2013-05-11 00:27:00,
2013-05-10 19:32:00,50.7,47.6,30.00,NNW,331,6.0,6.0,89,0.00,,OVC007,0.00,5.00,VWS V14.01,2013-05-11 00:32:00,
2013-05-10 19:37:00,50.7,47.6,30.00,North,360,2.0,7.0,89,0.00,,OVC007,0.00,0.00,VWS V14.01,2013-05-11 00:37:00,
2013-05-10 19:42:00,50.7,47.9,30.00,NNW,345,0.0,4.0,90,0.00,,OVC007,0.00,0.00,VWS V14.01,2013-05-11 00:42:00,
2013-05-10 19:48:00,50.5,47.7,30.00,NNW,341,1.0,4.0,90,0.00,,OVC007,0.00,0.00,VWS V14.01,2013-05-11 00:48:00,
2013-05-10 19:53:00,50.5,48.0,30.00,NW,324,2.0,5.0,91,0.00,,OVC007,0.00,0.00,VWS V14.01,2013-05-11 00:53:00,
2013-05-10 19:58:00,50.4,47.9,30.00,NNW,327,3.0,3.0,91,0.00,,OVC007,0.00,0.00,VWS V14.01,2013-05-11 00:58:00,
2013-05-10 20:03:00,50.4,47.9,30.00,NNW,327,2.0,5.0,91,0.00,,,0.00,0.00,VWS V14.01,2013-05-11 01:03:00,
2013-05-10 20:08:00,50.4,47.6,30.01,NW,326,4.0,6.0,90,0.00,,,0.00,0.00,VWS V14.01,2013-05-11 01:08:00,
2013-05-10 20:13:00,50.4,47.6,30.00,NNW,337,4.0,9.0,90,0.00,,,0.00,0.00,VWS V14.01,2013-05-11 01:13:00,
2013-05-10 20:18:00,50.4,47.3,30.00,NW,325,4.0,5.0,89,0.00,,,0.00,0.00,VWS V14.01,2013-05-11 01:18:00,
2013-05-10 20:23:00,50.4,47.3,30.00,NW,325,1.0,3.0,89,0.00,,,0.00,0.00,VWS V14.01,2013-05-11 01:23:00,
2013-05-10 20:28:00,50.4,47.3,30.00,North,11,2.0,7.0,89,0.00,,,0.00,0.00,VWS V14.01,2013-05-11 01:28:00,
2013-05-10 20:33:00,50.4,47.3,30.01,NNW,338,4.0,8.0,89,0.00,,,0.00,0.00,VWS V14.01,2013-05-11 01:33:00,
2013-05-10 20:39:00,50.4,47.3,30.01,North,351,2.0,3.0,89,0.00,,,0.00,0.00,VWS V14.01,2013-05-11 01:39:00,
2013-05-10 20:44:00,50.4,47.3,30.00,North,9,1.0,3.0,89,0.00,,,0.00,0.00,VWS V14.01,2013-05-11 01:44:00,
2013-05-10 20:49:00,50.4,47.3,30.00,NNW,341,2.0,3.0,89,0.00,,,0.00,0.00,VWS V14.01,2013-05-11 01:49:00,
2013-05-10 20:55:00,50.5,47.4,30.00,NNW,330,2.0,5.0,89,0.00,,,0.00,0.00,VWS V14.01,2013-05-11 01:55:00,
2013-05-10 21:00:00,50.4,47.3,30.01,North,11,3.0,7.0,89,0.00,,,0.00,0.00,VWS V14.01,2013-05-11 02:00:00,
2013-05-10 21:05:00,50.4,47.3,30.01,North,360,4.0,7.0,89,0.00,,,0.00,0.00,VWS V14.01,2013-05-11 02:05:00,
2013-05-10 21:10:00,50.2,47.1,30.01,NNW,344,5.0,6.0,89,0.00,,,0.00,0.00,VWS V14.01,2013-05-11 02:10:00,
2013-05-10 21:16:00,50.2,47.4,30.01,NW,312,4.0,8.0,90,0.00,,,0.00,0.00,VWS V14.01,2013-05-11 02:16:00,
2013-05-10 21:21:00,50.1,47.3,30.01,NNW,327,5.0,8.0,90,0.00,,,0.00,0.00,VWS V14.01,2013-05-11 02:21:00,
2013-05-10 21:26:00,49.9,47.1,30.01,NNW,344,2.0,4.0,90,0.00,,,0.00,0.00,VWS V14.01,2013-05-11 02:26:00,
2013-05-10 21:31:00,49.9,47.1,30.01,NNE,14,4.0,8.0,90,0.00,,,0.00,0.00,VWS V14.01,2013-05-11 02:31:00,
2013-05-10 21:36:00,49.9,47.4,30.02,NNW,348,4.0,5.0,91,0.00,,,0.00,0.00,VWS V14.01,2013-05-11 02:36:00,
2013-05-10 21:41:00,49.8,47.3,30.02,North,360,2.0,5.0,91,0.00,,,0.00,0.00,VWS V14.01,2013-05-11 02:41:00,
2013-05-10 21:46:00,49.8,47.3,30.02,North,360,3.0,7.0,91,0.00,,,0.00,0.00,VWS V14.01,2013-05-11 02:46:00,
2013-05-10 21:52:00,49.6,47.4,30.02,NNW,340,4.0,8.0,92,0.00,,,0.00,0.00,VWS V14.01,2013-05-11 02:52:00,
2013-05-10 21:57:00,49.6,47.4,30.02,North,11,0.0,4.0,92,0.00,,,0.00,0.00,VWS V14.01,2013-05-11 02:57:00,
2013-05-10 22:02:00,49.5,47.3,30.02,NNE,17,1.0,6.0,92,0.00,,,0.00,0.00,VWS V14.01,2013-05-11 03:02:00,
2013-05-10 22:07:00,49.5,47.6,30.02,NNW,337,0.0,1.0,93,0.00,,,0.00,0.00,VWS V14.01,2013-05-11 03:07:00,
2013-05-10 22:12:00,49.5,47.6,30.02,NNW,328,4.0,8.0,93,0.00,,,0.00,0.00,VWS V14.01,2013-05-11 03:12:00,
2013-05-10 22:17:00,49.4,47.5,30.02,North,360,2.0,6.0,93,0.00,,,0.00,0.00,VWS V14.01,2013-05-11 03:17:00,
2013-05-10 22:22:00,49.4,47.5,30.02,North,5,5.0,7.0,93,0.00,,,0.00,0.00,VWS V14.01,2013-05-11 03:22:00,
2013-05-10 22:28:00,49.4,47.5,30.02,NNE,27,4.0,5.0,93,0.00,,,0.00,0.00,VWS V14.01,2013-05-11 03:28:00,
2013-05-10 22:33:00,49.4,47.5,30.02,North,351,3.0,7.0,93,0.00,,,0.00,0.00,VWS V14.01,2013-05-11 03:33:00,
2013-05-10 22:38:00,49.4,47.5,30.02,NW,306,0.0,4.0,93,0.00,,,0.00,0.00,VWS V14.01,2013-05-11 03:38:00,
2013-05-10 22:43:00,49.4,47.5,30.02,NNW,339,1.0,7.0,93,0.00,,,0.00,0.00,VWS V14.01,2013-05-11 03:43:00,
2013-05-10 22:48:00,49.2,47.3,30.02,NNW,342,4.0,4.0,93,0.00,,,0.00,0.00,VWS V14.01,2013-05-11 03:48:00,
2013-05-10 22:53:00,49.2,47.3,30.02,North,360,6.0,6.0,93,0.00,,,0.00,0.00,VWS V14.01,2013-05-11 03:53:00,
2013-05-10 22:58:00,49.1,47.2,30.02,NNE,20,3.0,6.0,93,0.00,,,0.00,0.00,VWS V14.01,2013-05-11 03:58:00,
2013-05-10 23:01:00,49.1,46.9,30.02,NNE,20,2.0,2.0,92,0.00,,,0.00,0.00,VWS V14.01,2013-05-11 04:01:00,
2013-05-10 23:02:00,49.1,47.2,30.02,NNE,20,3.0,3.0,93,0.00,,,0.00,0.00,VWS V14.01,2013-05-11 04:02:00,
2013-05-10 23:03:00,49.1,47.2,30.02,NNE,20,0.0,3.0,93,0.00,,,0.00,0.00,VWS V14.01,2013-05-11 04:03:00,
2013-05-10 23:08:00,49.1,46.9,30.02,NNE,12,0.0,4.0,92,0.00,,,0.00,0.00,VWS V14.01,2013-05-11 04:08:00,
2013-05-10 23:09:00,49.1,46.9,30.02,NNE,13,3.0,5.0,92,0.00,,,0.00,0.00,VWS V14.01,2013-05-11 04:09:00,
2013-05-10 23:14:00,49.1,46.9,30.02,NW,323,4.0,8.0,92,0.00,,,0.00,0.00,VWS V14.01,2013-05-11 04:14:00,
2013-05-10 23:19:00,48.9,46.7,30.02,NE,35,4.0,9.0,92,0.00,,,0.00,0.00,VWS V14.01,2013-05-11 04:19:00,
2013-05-10 23:24:00,48.8,46.3,30.02,NNE,13,4.0,8.0,91,0.00,,,0.00,0.00,VWS V14.01,2013-05-11 04:24:00,
2013-05-10 23:25:00,48.8,46.3,30.02,NNE,13,5.0,5.0,91,0.00,,,0.00,0.00,VWS V14.01,2013-05-11 04:25:00,
2013-05-10 23:30:00,48.6,45.8,30.02,NNE,16,6.0,6.0,90,0.00,,,0.00,0.00,VWS V14.01,2013-05-11 04:30:00,
2013-05-10 23:35:00,48.6,45.5,30.02,NW,321,2.0,5.0,89,0.00,,,0.00,0.00,VWS V14.01,2013-05-11 04:35:00,
2013-05-10 23:40:00,48.6,45.2,30.02,NNE,30,2.0,3.0,88,0.00,,,0.00,0.00,VWS V14.01,2013-05-11 04:40:00,
2013-05-10 23:45:00,48.6,45.2,30.02,NNW,346,8.0,8.0,88,0.00,,,0.00,0.00,VWS V14.01,2013-05-11 04:45:00,
2013-05-10 23:50:00,48.6,45.2,30.02,NW,309,5.0,7.0,88,0.00,,,0.00,0.00,VWS V14.01,2013-05-11 04:50:00,
2013-05-10 23:55:00,48.6,45.2,30.03,North,10,3.0,9.0,88,0.00,,,0.00,0.00,VWS V14.01,2013-05-11 04:55:00,